Regional Weather Roundup
Issued by NWS

Home | Current Version | Previous Version | Graphics & Text | Print | Product List | Glossary On
Versions: 1 2 3 4 5 6 7 8 9 10 11 12 13 14 15 16 17 18 19 20 21 22 23 24 25 26 27
000
ASUS45 KPSR 180410
RWRAZ

ARIZONA HOURLY REGIONAL WEATHER ROUNDUP
NATIONAL WEATHER SERVICE PHOENIX AZ
900 PM MST TUE OCT 17 2017

NOTE: FAIR INDICATES FEW OR NO CLOUDS BELOW 12,000 FEET WITH NO
SIGNIFICANT WEATHER AND/OR OBSTRUCTIONS TO VISIBILITY.

AZZ001>003-036-180500-
NORTHWEST ARIZONA

CITY           SKY/WX    TMP DP  RH WIND       PRES   REMARKS
BULLHEAD CITY  CLEAR     77  14   9 NE6       29.91R
KINGMAN        CLEAR     70  29  21 CALM      30.08S
$$

AZZ004>008-015-016-018-180500-
NORTH CENTRAL ARIZONA

CITY           SKY/WX    TMP DP  RH WIND       PRES   REMARKS
GRAND CANYON   PTCLDY    41  17  38 NE3       30.30R
WILLIAMS       CLEAR     52  21  30 E5        30.30R
PRESCOTT       PTCLDY    62  33  33 S7        30.19R
FLAGSTAFF      CLEAR     45  22  40 CALM      30.32R
PAYSON           N/A     64  36  34 CALM      30.21S
PAGE           PTCLDY    60  18  19 CALM      30.13R
$$

AZZ009>014-017-180500-
NORTHEAST ARIZONA

CITY           SKY/WX    TMP DP  RH WIND       PRES   REMARKS
WINSLOW        PTCLDY    59  23  25 CALM      30.19R
SAINT JOHNS    PTCLDY    57  22  25 SW5       30.23R
WINDOW ROCK    PTCLDY    45   8  22 CALM      30.30S
SHOW LOW       PTCLDY    59  32  36 S8        30.30R
$$

AZZ540-542>544-546-548-180500-
GREATER PHOENIX AREA

CITY           SKY/WX    TMP DP  RH WIND       PRES   REMARKS
PHOENIX        MOCLDY    85  49  28 SW5       29.90R
BUCKEYE        MOCLDY    77  39  25 N8        29.91S
LUKE AFB       MOCLDY    80  50  34 CALM      29.89S
DEER VALLEY    MOCLDY    82  44  26 N5        29.93R
SCOTTSDALE     MOCLDY    84  48  28 CALM      29.94R
MESA-GATEWAY   MOCLDY    79  46  31 E5        29.93S
CHANDLER       CLEAR     81  50  34 W5        29.91S
$$

AZZ539-553-180500-
SOUTHWEST MARICOPA COUNTY AND PINAL COUNTY

CITY           SKY/WX    TMP DP  RH WIND       PRES   REMARKS
CASA GRANDE    NOT AVBL
GILA BEND      MOCLDY    82  39  21 S2        29.89S
$$

AZZ503-504-507>509-180500-
SOUTHEAST ARIZONA

CITY           SKY/WX    TMP DP  RH WIND       PRES   REMARKS
TUCSON         CLOUDY    81  40  23 W6        30.03R
DAVIS-MONTHAN  MOCLDY    82  39  21 VRB5      30.01R
NOGALES        CLOUDY    74  44  34 SE3       30.11R
SIERRA VISTA   MOCLDY    74  45  35 SW6       30.18R
DOUGLAS        CLOUDY    76  44  32 E7        30.13R
SAFFORD        MOCLDY    72  40  31 E7        30.04S
$$

AZZ532-180500-
SOUTHWEST ARIZONA

CITY           SKY/WX    TMP DP  RH WIND       PRES   REMARKS
YUMA           MOCLDY    81  34  18 W3        29.87R
$$

CAZ041-043-047-048-061-525>527-560>570-180500-
SOUTHERN CALIFORNIA

CITY           SKY/WX    TMP DP  RH WIND       PRES   REMARKS
DOWNTOWN L.A.  CLEAR     76  54  46 CALM      29.90S
L.A. AIRPORT   PTCLDY    73  57  57 S5        29.91S
SAN DIEGO      PTCLDY    74  55  51 CALM      29.95S
BURBANK        CLEAR     80  46  30 E5        29.93S
ONTARIO        MOCLDY    80  28  15 CALM      29.95S
RIVERSIDE      CLEAR     78  43  28 CALM      29.95R
PALM SPRINGS   CLEAR     81  30  15 CALM      29.91R
EL CENTRO NAS  MOCLDY    75  29  18 SW7       29.87S
IMPERIAL       PTCLDY    80  36  20 CALM      29.85S
BLYTHE         CLEAR     77  26  15 NW3       29.88S
NEEDLES        CLEAR     82  10   6 W7        29.92R
$$

NVZ020-UTZ003-180500-
SOUTHERN NEVADA-UTAH

CITY           SKY/WX    TMP DP  RH WIND       PRES   REMARKS
LAS VEGAS      MOCLDY    74  20  13 S6        30.00R
SALT LAKE CITY MOCLDY    51  34  52 S3        30.13R
$$

NMZ009-TXZ055-180500-
NEW MEXICO-WEST TEXAS

CITY           SKY/WX    TMP DP  RH WIND       PRES   REMARKS
ALBUQUERQUE    CLEAR     58  26  29 E6        30.22S
EL PASO        MOCLDY    73  41  31 CALM      30.14S
$$


........................KEY........................
SKY/WX - SKY CONDITION/WEATHER
TMP    - TEMPERATURE IN FAHRENHEIT
DP     - DEW POINT IN FAHRENHEIT
RH     - RELATIVE HUMIDITY IN PERCENT
WIND   - DIRECTION AND SPEED IN MILES PER HOUR (MPH)
VRB    - VARIABLE WIND DIRECTION
PRES   - MEAN SEA LEVEL PRESSURE IN INCHES OF MERCURY
         F - FALLING PRESSURE   R - RISING PRESSURE
         S - STEADY PRESSURE
VSB    - VISIBILITY IN MILES
HX     - HEAT INDEX IN FAHRENHEIT
WCI    - WIND CHILL INDEX IN FAHRENHEIT
TC     - TEMPERATURE IN CELSIUS WHICH IS ALSO KNOWN AS
         TEMPERATURE IN CENTIGRADE
AFB    - AIR FORCE BASE
         LUKE AFB IS LUKE AIR FORCE BASE
         DAVIS-MONTHAN IS DAVIS-MONTHAN AIR FORCE BASE
NAS    - NAVAL AIR STATION
         EL CENTRO NAS IS EL CENTRO NAVAL AIR STATION
N/A    - NOT AVAILABLE





USA.gov is the U.S. government's official web portal to all federal, state and local government web resources and services.